カタログに戻る

CONNECTA IOT-14

運用中通信SSO
NORAD 67401·PAYLOAD·🇹🇷 Turkey

打ち上げ Jan 11, 2026 から Vandenberg Space Force Base

Loading…

次のパス (今後24時間)

TLE

最新Source: Space-Track

元期: Sep 14, 2026, 05:08 UTC

1 67401U 26004AQ  26257.21450869  .00006556  00000-0  31404-3 0  9994
2 67401  97.4567 255.0254 0010541  40.2062 319.9950 15.19224615 37277

AllMySatでCONNECTA IOT-14をリアルタイム追跡

Download on the App Store